www.pogodaiklimat.ru

Погода и климат >> Архив погоды >> Кипр >> Ларнака


АРХИВ ПОГОДЫ в Ларнаке

Время (UTC), дата Ветер
(напр.,м/с)
 
Видим.   Явления Облачность Т
(С)
Тd
(С)
f
(%)
Тe
(С)
Тes
(С)
Комфортность P
(гПа)
Po
(гПа)
Тmin
(С)
Tmax
(С)
R
(мм)
R24
(мм)
S
(см)
21 12.07 СЗ 3 12 км ясно +25.6 +21.1 76 +32 +32 очень
душно
1005.8 1005.5
00 13.07 ЮВ 2 12 км ясно +24.5 +21.2 82 +31 +31 очень
душно
1005.5 1005.2
03 13.07 Ю 2 12 км ясно +23.4 +21.1 87 +31 +31 очень
душно
1006.0 1005.7
06 13.07 Ю 3 20 км ясно +27.0 +21.1 70 +34 +41 очень
душно
1007.0 1006.7 +23.4 +28.0
09 13.07 ЮЗ 8 20 км 1/1 600 м
[Cu hum]
+29.8 +21.7 62 +38 +41 очень
душно
1006.7 1006.4
12 13.07 ЮЗ 9 20 км 1/1 600 м
[Cu med, cong]
+30.6 +21.9 60 +39 +40 очень
душно
1005.8 1005.5
15 13.07 ЮЗ 11
{19}
17 км 1/1 750 м
[Cu med, cong]
+28.6 +22.6 70 +38 +38 очень
душно
1004.5 1004.2
18 13.07 ЮЗ 4
{19}
15 км 1/1 750 м
[Cu hum]
+26.8 +21.3 72 +34 +34 очень
душно
1005.9 1005.6 +26.8 +30.9
21 13.07 С 3 15 км ясно +26.7 +21.0 71 +34 +34 очень
душно
1006.9 1006.6
00 14.07 ЮЗ 1 15 км ясно +23.4 +20.5 84 +31 +31 очень
душно
1006.4 1006.1
03 14.07 З 2 20 км 1/1 540 м
[Sc]
+21.7 +19.3 86 +27 +27 душно 1006.4 1006.1
06 14.07 В 2 20 км 1/1 600 м
[Sc]
+28.6 +20.1 60 +35 +43 очень
душно
1006.4 1006.1 +21.6 +29.0
09 14.07 ЮВ 3 20 км 1/1 750 м
[Cu hum]
+29.1 +21.8 65 +37 +54 опасность
солнечного
удара
1006.1 1005.8
12 14.07 ЮЗ 11
{16}
17 км 4/4 600 м
[Cu Sc]
+32.1 +17.6 42 +36 +36 очень
душно
1004.9 1004.6
15 14.07 ЮЗ 9 18 км 4/4 750 м
[Cu Sc]
+29.8 +20.9 59 +37 +37 очень
душно
1004.2 1003.9
18 14.07 СЗ 5 20 км 3/3 1500 м
[Sc]
+28.2 +15.5 46 +31 +31 душно 1005.5 1005.2
21 14.07 Ю 2 20 км ясно +24.6 +20.1 76 +30 +30 очень
душно
1005.7 1005.4
00 15.07 штиль 0 20 км ясно +22.1 +19.5 85 +28 +28 душно 1004.7 1004.4
03 15.07 ЮЗ 1 25 км 1/1 600 м
[Cu hum]
+21.2 +17.8 81 +25 +25 комфорт 1005.0 1004.7
06 15.07 ЮЗ 7 18 км 3/3 750 м
[Cu med, cong]
+28.6 +21.6 66 +37 +38 очень
душно
1005.5 1005.2 +20.9 +28.6
09 15.07 ЮЗ 9 15 км 5/5 900 м
[Cu Sc]
+30.7 +22.3 61 +40 +41 очень
душно
1005.6 1005.3
12 15.07 ЮЗ 12-16
{18}
18 км 5/4 900 м
[Cu Sc Ac trans]
+29.2 +22.4 67 +38 +38 очень
душно
1004.7 1004.4
15 15.07 ЮЗ 10
{17}
20 км {ливн. осадки} 6/4 900 м
[Cu Sc Ac cuf]
+28.4 +22.6 71 +38 +38 очень
душно
1004.7 1004.4
18 15.07 С 4
{17}
18 км 1/1 2000 м
[Sc]
+28.3 +21.6 67 +36 +36 очень
душно
1005.7 1005.4 +27.0 +31.3
21 15.07 С 4 18 км ясно +26.1 +18.8 64 +31 +31 очень
душно
1006.6 1006.3
00 16.07 ЮЗ 3 18 км ясно +23.2 +19.6 80 +30 +30 очень
душно
1006.3 1006.0
03 16.07 СЗ 2 12 км 1/1 480 м
[Sc]
+20.9 +17.5 81 +26 +26 душно 1006.6 1006.3
06 16.07 ЮВ 2 10 км ясно +28.7 +20.2 60 +35 +44 очень
душно
1007.2 1006.9 +20.9 +28.7
09 16.07 ЮЗ 7 20 км 1/1 900 м
[Cu med, cong]
+31.1 +21.6 57 +39 +45 очень
душно
1006.8 1006.5
12 16.07 ЮЗ 12-16
{17}
30 км 1/1 900 м
[Cu Sc]
+31.0 +21.5 57 +39 +39 очень
душно
1006.1 1005.8
18 16.07 ЮЗ 6
{18}
25 км 1/0
[Ac trans]
+26.5 +19.6 66 +32 +32 очень
душно
1006.1 1005.8 +26.5 +31.4
21 16.07 З 1 20 км ясно +24.9 +17.9 65 +29 +29 душно 1005.7 1005.4
00 17.07 ЮВ 1 20 км ясно +22.9 +17.4 71 +28 +28 душно 1004.7 1004.4
03 17.07 СЗ 2 15 км ясно +21.9 +19.3 85 +27 +27 душно 1003.8 1003.5
06 17.07 В 2 25 км 4/4 180 м
[St]
+27.2 +23.7 81 +37 +43 очень
душно
1003.3 1003.0 +21.8 +27.3
09 17.07 ЮВ 3 40 км ясно +29.6 +22.8 67 +39 +56 опасность
солнечного
удара
1002.8 1002.5
12 17.07 ЮВ 5 30 км 1/1 840 м
[Cu hum]
+30.1 +24.3 71 +42 +50 опасность
перегрева
1001.7 1001.4
15 17.07 ЮЗ 10 30 км 1/1 840 м
[Cu med, cong]
+30.4 +24.1 69 +42 +42 опасность
перегрева
1000.8 1000.5
21 17.07 ЮЗ 5 25 км 1/1 750 м
[Cu hum]
+25.9 +21.6 77 +33 +33 очень
душно
1003.5 1003.2
00 18.07 ЮЗ 6 25 км ясно +24.8 +20.9 79 +31 +31 очень
душно
1002.7 1002.4
03 18.07 Ю 4 25 км 1/1 750 м
[Cu med, cong]
+23.6 +20.1 81 +29 +29 душно 1003.7 1003.4
06 18.07 ЮЗ 7 25 км 1/1 750 м
[Cu Sc]
+28.4 +21.7 67 +36 +38 очень
душно
1005.0 1004.7 +23.6 +28.4
12 18.07 ЮЗ 11
{17}
12 км 5/5 750 м
[Cu Sc]
+30.4 +20.3 55 +37 +37 очень
душно
1005.3 1005.0
15 18.07 ЮЗ 9 12 км 4/4 1050 м
[Cu Sc]
+29.3 +21.5 63 +37 +37 очень
душно
1005.8 1005.5
18 18.07 СЗ 2 20 км 1/1 1200 м
[Sc]
+27.3 +20.9 68 +34 +34 очень
душно
1007.6 1007.3 +26.9 +31.7
21 18.07 С 2 20 км 1/1 1200 м
[Sc]
+25.3 +21.2 78 +32 +32 очень
душно
1009.1 1008.8
00 19.07 З 2 15 км ясно +23.8 +21.1 85 +30 +30 очень
душно
1008.9 1008.6
03 19.07 З 1 15 км ясно +22.3 +20.4 89 +29 +29 очень
душно
1009.7 1009.4
06 19.07 В 3 15 км ясно +28.3 +22.1 69 +37 +45 очень
душно
1010.4 1010.1 +22.2 +28.3
09 19.07 Ю 5 15 км 1/1 750 м
[Cu hum]
+29.1 +21.8 65 +37 +47 очень
душно
1010.6 1010.3
12 19.07 ЮЗ 8 18 км 1/1 900 м
[Cu med, cong]
+31.0 +21.8 58 +39 +42 очень
душно
1010.1 1009.8
15 19.07 ЮЗ 6 15 км 3/1 900 м
[Cu hum Ci fib]
+30.1 +22.5 64 +39 +40 очень
душно
1009.3 1009.0
18 19.07 ЮЗ 4 15 км ясно +25.8 +22.1 80 +33 +33 очень
душно
1010.0 1009.7 +25.8 +31.4

 

Местоположение метеостанции Ларнака (Кипр): широта 34.88 долгота 33.63 высота над уровнем моря 2 м.

В архиве по умолчанию представлена погода в Ларнаке за последнюю неделю. Архивные данные за месяц целиком и за предыдущие месяцы, начиная с января 2011 года, Вы можете получить, выбрав интересующий диапазон дат из раскрывающегося списка и нажав кнопку "Ввод!".


*Определитесь, кто Вы:
робот инопланетянин человек

Внимание! Время в таблицах - всемирное. Для получения местного времени необходимо прибавить поправку, которая равна 2 ч.

Смотрите также архив погоды в соседних городах и на ближайших метеорологических станциях:

Погода в Никосии (Кипр) (32 км)
Погода в Unknown (Кипр) (36 км)
Погода в Аталассе (Кипр) (37 км)
Погода на Базе ВВС Gecitkale (Кипр) (40 км)
Погода в Фамагусте (Кипр) (40 км)
Погода в Лефконико (Кипр) (42 км)
Погода в Искеле (Кипр) (50 км)
Погода в Киринии (Кипр) (59 км)
Погода на Акротири (Кипр) (68 км)
Погода в Акденизе (Кипр) (76 км)

Пояснения к столбцам:

Ветер - указаны скорость ветра в м/с - средняя за 10 мин, порывы в срок и между сроками (в фигурных скобках) и направление, откуда дует ветер: С - северный, СВ - северо-восточный, В - восточный, ЮВ - юго-восточный, Ю - южный, ЮЗ - юго-западный, З - западный, СЗ - северо-западный.
Видимость - горизонтальная дальность видимости в метрах или километрах. При видимости от 1 до 10 км при отсутствии осадков обычно наблюдается дымка, при ухудшении видимости до 1 км и менее - туман. В сухую погоду видимость может ухудшаться дымом, пылью или мглою.
Явления - указаны атмосферные явления, наблюдавшиеся в срок или в последний час перед сроком; фигурными скобками обозначены явления, наблюдавшиеся между сроками (за 1-3 часа до срока); квадратными скобками обозначены град или гололедные отложения с указанием их диаметра в мм.
Облачность - указаны через наклонную черту общая и нижняя облачность в баллах и высота нижней границы облаков в метрах; квадратными скобками обозначены формы облаков: Ci - перистые, Cs - перисто-слоистые, Cc - перисто-кучевые, Ac - высококучевые, As - высокослоистые, Sc - слоисто-кучевые, Ns - слоисто-дождевые, Cu - кучевые, Cb - кучево-дождевые. Подробнее классификацию облаков см. в Атласе облаков (PDF).
T - Температура воздуха - температура, измеренная на высоте 2 м над землей.
Td - Температура точки росы - температура, при понижении до которой содержащийся в воздухе водяной пар достигнет насыщения.
f - Относительная влажность воздуха - влажноcть воздуха, измеренная на высоте 2 м над землей.
Te - Эффективная температура - температура, которую ощущает одетый по сезону человек в тени. Характеристика душности погоды. При расчете учитывается влияние влажности воздуха и скорости ветра на теплоощущения человека.
Tes - Эффективная температура на солнце - температура, которую ощущает человек, с поправкой на солнечный нагрев. Характеристика знойности погоды. Зависит от высоты солнца над горизонтом, облачности и скорости ветра. Ночью, в пасмурную погоду, а также при ветре 12 м/с и более поправка равна нулю.
P - Атмосферное давление - приведенное к уровню моря атмосферное давление.
Po - Атмосферное давление - измеренное на уровне метеостанции атмосферное давление.
Tmin - Минимальная температура - минимум температуры воздуха на высоте 2 м над землей.
Tmax - Максимальная температура - максимум температуры воздуха на высоте 2 м над землей.
R - Количество осадков - Количество выпавших осадков за период времени, мм. При наведении курсора мыши на число - период времени, за который выпало указанное количество осадков.
R24 - Количество осадков - Количество выпавших осадков за 24 часа, мм.
S - Снежный покров - Высота снежного покрова, см. При наведении курсора мыши на число - состояние снежного покрова и степень покрытия местности в баллах.